Regional Weather Roundup
Issued by NWS Cleveland, OH

Home | Current Version | Previous Version | Graphics & Text | Print | Product List | Glossary On
Versions: 1 2 3 4 5 6 7 8 9 10 11 12 13 14 15 16 17 18 19 20 21 22 23 24 25 26 27 28 29 30 31 32 33 34 35 36 37 38 39 40 41 42 43 44 45 46 47 48 49 50
000
ASUS41 KCLE 261910
RWRCLE
OHIO REGIONAL WEATHER ROUNDUP
NATIONAL WEATHER SERVICE WILMINGTON, OH
300 PM EDT MON SEP 26 2016

NOTE: "FAIR" INDICATES FEW OR NO CLOUDS BELOW 12,000 FEET WITH NO
SIGNIFICANT WEATHER AND/OR OBSTRUCTIONS TO VISIBILITY.

OHZ001>008-015>018-024>027-034-035-043-044-262000-
   NORTHWEST OHIO

CITY           SKY/WX    TMP DP  RH WIND       PRES   REMARKS
DEFIANCE       FAIR      67  44  43 W10G21    29.96F
FINDLAY        FAIR      67  48  50 W15       29.96F
TOLEDO EXPRESS FAIR      67  49  52 W15       29.93F
TOLEDO EXEC    FAIR      66  51  58 W17       29.94F
LIMA           FAIR      66  52  60 W15G22    29.99F
$$

OHZ009>014-019>023-028>033-038-089-262000-
   NORTHEAST OHIO

CITY           SKY/WX    TMP DP  RH WIND       PRES   REMARKS
CLE-HOPKINS    CLOUDY    64  58  80 SW12      29.96F
CLE-LAKEFRONT  PTSUNNY   65  59  81 SW13      29.93F
CUY CO. ARPT   CLOUDY    64  63  94 SW12      29.94F
LORAIN-ELYRIA  CLOUDY    62  58  86 W8        29.95F
ASHTABULA      PTSUNNY   63  63 100 SW9       29.93S
AKRON-CANTON   LGT RAIN  63  58  83 W9        29.97S
WOOSTER        LGT RAIN  61  59  93 SW6       29.97F
MANSFIELD      CLOUDY    61  59  93 W7        29.97F
YOUNGSTOWN     LGT RAIN  62  59  90 SW10      29.96R
$$

OHZ042-051>053-060>062-070>072-077>081-262000-
  SOUTHWEST OHIO

CITY           SKY/WX    TMP DP  RH WIND       PRES   REMARKS
CINC-COVINGTON PTSUNNY   66  56  70 W8        30.05F
CINC-LUNKEN    FAIR      67  59  75 W8        30.04F
HAMILTON       FAIR      68  54  60 NW8       30.05F
DAYTON         PTSUNNY   66  50  56 W16G23    30.03F
WRIGHT-PAT AFB PTSUNNY   66  53  61 W14       30.01F
DAYTON GENERAL FAIR      65  50  58 W10G18    30.03F
WILMINGTON     FAIR      62  57  83 W12       30.02F
$$

OHZ036-037-039>041-045>050-054>059-063>069-073>076-082>088-262000-
  CENTRAL AND SOUTHEAST OHIO

CITY           SKY/WX    TMP DP  RH WIND       PRES   REMARKS
COLUMBUS       CLOUDY    62  59  90 W15       30.00F FOG
OSU AIRPORT    FAIR      63  57  81 W12       30.00F
BOLTON FIELD   CLOUDY    61  57  88 W8        30.01F
RICKENBACK AFB CLOUDY    62  60  94 W12       30.00F
NEWARK         LGT RAIN  63  60  90 SW6       29.98F
MARION         PTSUNNY   64  56  75 W10       29.99F
LANCASTER      CLOUDY    64  61  90 W9        30.00F
ZANESVILLE     CLOUDY    65  61  87 W6        29.99S
NEW PHILLY     PTSUNNY   64  62  93 VRB3      29.97F
$$




USA.gov is the U.S. government's official web portal to all federal, state and local government web resources and services.